Regional Weather Roundup
Issued by NWS

Home | Current Version | Previous Version | Text Only | Print | Product List | Glossary Off
Versions: 1 2 3 4 5 6 7 8 9 10 11 12 13 14 15 16 17 18 19 20 21 22 23 24 25 26 27 28 29 30 31 32 33 34 35 36 37 38 39 40 41 42 43 44 45 46 47 48 49 50

000
ASUS43 KLMK 242002
RWRKY
KENTUCKY REGIONAL WEATHER ROUNDUP
NATIONAL WEATHER SERVICE LOUISVILLE KY
400 PM EDT THU APR 24 2014

NOTE "FAIR" INDICATES FEW OR NO CLOUDS BELOW 12,000 FEET
WITH NO SIGNIFICANT WEATHER AND/OR OBSTRUCTIONS TO VISIBILITY.

KYZ001>023-026-027-061>063-070>075-242100-
WESTERN AND SOUTH CENTRAL KENTUCKY

CITY           SKY/WX    TMP DP  RH WIND       PRES   REMARKS
PADUCAH        PTSUNNY   80  45  28 S10G24    29.80F
HENDERSON      PTSUNNY   75  41  29 S13       29.83F
OWENSBORO      PTSUNNY   75  40  28 S13       29.85F
HOPKINSVILLE   PTSUNNY   79  39  23 W10       29.85F
BOWLING GREEN  MOSUNNY   77  37  23 S14       29.88F
GLASGOW        NOT AVBL
$$

KYZ024-025-028>034-038-045-046-053-242100-
NORTH CENTRAL KENTUCKY

CITY           SKY/WX    TMP DP  RH WIND       PRES   REMARKS
LOUISVILLE/SDF PTSUNNY   72  38  29 SE12      29.89F
LOUISVILLE/LOU SUNNY     74  36  25 SE9       29.89F
FORT KNOX      MOSUNNY   74  37  26 SE9       29.87F
$$

KYZ035>037-039>044-047>052-055>060-089>105-242100-
NORTHEAST KENTUCKY

CITY           SKY/WX    TMP DP  RH WIND       PRES   REMARKS
LEXINGTON      SUNNY     71  39  31 E7        29.93F
COVINGTON      PTSUNNY   64  30  27 SE16      29.94F
FRANKFORT      MOSUNNY   70  40  33 E10       29.91F
$$

KYZ054-064>069-076>088-106>120-242100-
SOUTHEAST KENTUCKY

CITY           SKY/WX    TMP DP  RH WIND       PRES   REMARKS
JACKSON        SUNNY     73  29  19 CALM      29.94F
LONDON         SUNNY     76  33  21 VRB3      29.92F
SOMERSET       NOT AVBL
MIDDLESBORO    NOT AVBL
MONTICELLO     MOCLDY    78  38  23 VRB3      29.91F
$$




USA.gov is the U.S. government's official web portal to all federal, state and local government web resources and services.